• In Colombia
  • List of Countries
  • For 7 days
  • Water Temperature
  • Weather Map
  • Weather Widgets
  • user-avatar
    Login

    Hourly Weather Podgorica

    Today, 5 December, Thursday

    Time Temperature Precipitation Wind Pressure Humidity
    00:00 +4°C° 0 mm 2 mps 762 mmHg 56%
    01:00 +4°C° 0 mm 2 mps 763 mmHg 55%
    02:00 +4°C° 0 mm 2 mps 762 mmHg 51%
    03:00 +5°C° 0 mm 2 mps 762 mmHg 48%
    04:00 +5°C° 0 mm 2 mps 762 mmHg 45%
    05:00 +5°C° 0 mm 2 mps 762 mmHg 45%
    06:00 +7°C° 0 mm 1 mps 762 mmHg 45%
    07:00 +7°C° 0 mm 1 mps 762 mmHg 47%
    08:00 +9°C° 0 mm 1 mps 762 mmHg 50%
    09:00 +10°C° 0 mm 1 mps 762 mmHg 53%
    10:00 +12°C° 0 mm 1 mps 762 mmHg 55%
    11:00 +13°C° 0 mm 1 mps 762 mmHg 58%
    12:00 +13°C° 0 mm 1 mps 761 mmHg 60%
    13:00 +14°C° 0 mm 1 mps 761 mmHg 62%
    14:00 +12°C° 0 mm 1 mps 761 mmHg 67%
    15:00 +11°C° 0 mm 1 mps 761 mmHg 73%
    16:00 +10°C° 0 mm 1 mps 761 mmHg 79%
    17:00 +9°C° 0 mm 1 mps 761 mmHg 78%
    18:00 +9°C° 0 mm 1 mps 762 mmHg 78%
    19:00 +9°C° 0 mm 1 mps 762 mmHg 77%
    20:00 +9°C° 0 mm 1 mps 762 mmHg 77%
    21:00 +9°C° 0 mm 1 mps 762 mmHg 77%
    22:00 +9°C° 0 mm 1 mps 762 mmHg 78%
    23:00 +8°C° 0 mm 2 mps 762 mmHg 77%

    Tomorrow, 6 December, Friday

    Time Temperature Precipitation Wind Pressure Humidity
    00:00 +8°C° 0 mm 2 mps 762 mmHg 77%
    01:00 +8°C° 0 mm 2 mps 762 mmHg 77%
    02:00 +8°C° 0 mm 2 mps 762 mmHg 78%
    03:00 +8°C° 0 mm 2 mps 762 mmHg 78%
    04:00 +8°C° 0 mm 2 mps 761 mmHg 79%
    05:00 +9°C° 0 mm 2 mps 761 mmHg 80%
    06:00 +10°C° 0 mm 1 mps 762 mmHg 81%
    07:00 +10°C° 0 mm 1 mps 762 mmHg 82%
    08:00 +11°C° 0 mm 1 mps 761 mmHg 80%
    09:00 +13°C° 0 mm 1 mps 761 mmHg 78%
    10:00 +13°C° 0 mm 0 mps 761 mmHg 76%
    11:00 +14°C° 0 mm 1 mps 761 mmHg 77%
    12:00 +15°C° 0 mm 1 mps 760 mmHg 77%
    13:00 +15°C° 0 mm 1 mps 760 mmHg 78%
    14:00 +14°C° 0.2 mm 1 mps 760 mmHg 81%
    15:00 +14°C° 0.2 mm 1 mps 759 mmHg 84%
    16:00 +13°C° 0.2 mm 1 mps 759 mmHg 88%
    17:00 +13°C° 0.7 mm 1 mps 759 mmHg 90%
    18:00 +13°C° 0.7 mm 1 mps 759 mmHg 91%
    19:00 +13°C° 0.7 mm 1 mps 759 mmHg 93%
    20:00 +13°C° 1.9 mm 1 mps 759 mmHg 94%
    21:00 +13°C° 1.9 mm 1 mps 759 mmHg 95%
    22:00 +13°C° 1.9 mm 1 mps 758 mmHg 96%
    23:00 +13°C° 1.8 mm 1 mps 758 mmHg 96%

    Day after tomorrow, 7 December, Saturday

    Time Temperature Precipitation Wind Pressure Humidity
    00:00 +13°C° 1.8 mm 1 mps 758 mmHg 96%
    01:00 +13°C° 1.8 mm 1 mps 757 mmHg 96%
    02:00 +13°C° 0.8 mm 1 mps 757 mmHg 95%
    03:00 +13°C° 0.8 mm 1 mps 757 mmHg 95%
    04:00 +13°C° 0.8 mm 1 mps 756 mmHg 95%
    05:00 +13°C° 0.6 mm 1 mps 756 mmHg 95%
    06:00 +13°C° 0.6 mm 1 mps 756 mmHg 94%
    07:00 +13°C° 0.6 mm 1 mps 756 mmHg 94%
    08:00 +14°C° 0.3 mm 1 mps 756 mmHg 91%
    09:00 +14°C° 0.3 mm 1 mps 756 mmHg 89%
    10:00 +15°C° 0.3 mm 1 mps 756 mmHg 86%
    11:00 +15°C° 0.1 mm 1 mps 756 mmHg 84%
    12:00 +16°C° 0.1 mm 1 mps 756 mmHg 82%
    13:00 +16°C° 0.1 mm 1 mps 755 mmHg 80%
    14:00 +15°C° 0.1 mm 1 mps 755 mmHg 83%
    15:00 +13°C° 0.1 mm 0 mps 755 mmHg 86%
    16:00 +13°C° 0.1 mm 0 mps 755 mmHg 89%
    17:00 +12°C° 0 mm 0 mps 755 mmHg 88%
    18:00 +12°C° 0 mm 0 mps 756 mmHg 88%
    19:00 +12°C° 0 mm 1 mps 756 mmHg 87%
    20:00 +12°C° 0 mm 1 mps 756 mmHg 86%
    21:00 +12°C° 0 mm 1 mps 756 mmHg 86%
    22:00 +12°C° 0 mm 1 mps 756 mmHg 86%
    23:00 +12°C° 0 mm 1 mps 756 mmHg 85%

    8 December, Sunday

    Time Temperature Precipitation Wind Pressure Humidity
    00:00 +11°C° 0 mm 1 mps 756 mmHg 85%
    01:00 +11°C° 0 mm 1 mps 756 mmHg 85%
    02:00 +11°C° 0 mm 1 mps 756 mmHg 85%
    03:00 +11°C° 0 mm 1 mps 756 mmHg 84%
    04:00 +11°C° 0 mm 1 mps 756 mmHg 84%
    05:00 +10°C° 0 mm 1 mps 756 mmHg 83%
    06:00 +10°C° 0 mm 1 mps 757 mmHg 82%
    07:00 +10°C° 0 mm 1 mps 757 mmHg 81%
    08:00 +11°C° 0 mm 1 mps 757 mmHg 78%
    09:00 +13°C° 0 mm 1 mps 757 mmHg 76%
    10:00 +13°C° 0 mm 0 mps 757 mmHg 73%
    11:00 +14°C° 0 mm 1 mps 757 mmHg 73%
    12:00 +15°C° 0 mm 1 mps 756 mmHg 73%
    13:00 +15°C° 0 mm 1 mps 756 mmHg 73%
    14:00 +14°C° 0 mm 1 mps 756 mmHg 78%
    15:00 +12°C° 0 mm 0 mps 756 mmHg 83%
    16:00 +11°C° 0 mm 0 mps 756 mmHg 87%
    17:00 +11°C° 0 mm 0 mps 756 mmHg 87%
    18:00 +11°C° 0 mm 0 mps 756 mmHg 87%
    19:00 +10°C° 0 mm 0 mps 756 mmHg 87%
    20:00 +10°C° 0 mm 0 mps 756 mmHg 87%
    21:00 +11°C° 0 mm 1 mps 756 mmHg 87%
    22:00 +11°C° 0 mm 1 mps 756 mmHg 87%
    23:00 +11°C° 0 mm 1 mps 756 mmHg 87%

    9 December, Monday

    Time Temperature Precipitation Wind Pressure Humidity
    00:00 +11°C° 0 mm 1 mps 755 mmHg 87%
    01:00 +11°C° 0 mm 1 mps 755 mmHg 87%
    02:00 +11°C° 0 mm 1 mps 755 mmHg 88%
    03:00 +11°C° 0 mm 1 mps 754 mmHg 89%
    04:00 +11°C° 0 mm 1 mps 754 mmHg 90%
    05:00 +11°C° 0 mm 1 mps 754 mmHg 90%
    06:00 +11°C° 0 mm 1 mps 754 mmHg 91%
    07:00 +11°C° 0 mm 1 mps 754 mmHg 91%
    08:00 +11°C° 0.2 mm 1 mps 753 mmHg 93%
    09:00 +12°C° 0.2 mm 1 mps 753 mmHg 94%
    10:00 +12°C° 0.2 mm 2 mps 753 mmHg 95%
    11:00 +12°C° 0.6 mm 1 mps 752 mmHg 95%
    12:00 +12°C° 0.6 mm 1 mps 751 mmHg 96%
    13:00 +12°C° 0.6 mm 1 mps 751 mmHg 96%
    14:00 +12°C° 0.3 mm 1 mps 751 mmHg 96%
    15:00 +12°C° 0.3 mm 1 mps 750 mmHg 96%
    16:00 +12°C° 0.3 mm 1 mps 750 mmHg 96%
    17:00 +12°C° 0.2 mm 1 mps 750 mmHg 96%
    18:00 +12°C° 0.2 mm 1 mps 750 mmHg 96%
    19:00 +12°C° 0.2 mm 1 mps 750 mmHg 96%
    20:00 +12°C° 0.4 mm 1 mps 750 mmHg 96%
    21:00 +12°C° 0.4 mm 1 mps 750 mmHg 96%
    22:00 +12°C° 0.4 mm 1 mps 750 mmHg 96%
    23:00 +12°C° 2.3 mm 1 mps 750 mmHg 95%

    10 December, Tuesday

    Time Temperature Precipitation Wind Pressure Humidity
    00:00 +12°C° 2.3 mm 1 mps 750 mmHg 94%
    01:00 +12°C° 2.3 mm 2 mps 749 mmHg 93%
    02:00 +10°C° 0.3 mm 2 mps 750 mmHg 90%
    03:00 +10°C° 0.3 mm 2 mps 750 mmHg 87%
    04:00 +9°C° 0.3 mm 2 mps 751 mmHg 84%
    05:00 +9°C° 0 mm 2 mps 752 mmHg 82%
    06:00 +8°C° 0 mm 3 mps 752 mmHg 80%
    07:00 +8°C° 0 mm 3 mps 753 mmHg 79%
    08:00 +9°C° 0 mm 3 mps 754 mmHg 76%
    09:00 +10°C° 0 mm 3 mps 755 mmHg 74%
    10:00 +11°C° 0 mm 3 mps 755 mmHg 72%
    11:00 +11°C° 0 mm 4 mps 756 mmHg 69%
    12:00 +11°C° 0 mm 4 mps 756 mmHg 66%
    13:00 +11°C° 0 mm 4 mps 756 mmHg 63%
    14:00 +10°C° 0 mm 4 mps 756 mmHg 66%
    15:00 +9°C° 0 mm 3 mps 757 mmHg 68%
    16:00 +8°C° 0 mm 3 mps 757 mmHg 71%
    17:00 +7°C° 0 mm 3 mps 758 mmHg 71%
    18:00 +7°C° 0 mm 3 mps 758 mmHg 72%
    19:00 +5°C° 0 mm 3 mps 758 mmHg 72%
    20:00 +5°C° 0 mm 3 mps 758 mmHg 70%
    21:00 +5°C° 0 mm 3 mps 759 mmHg 68%
    22:00 +5°C° 0 mm 3 mps 759 mmHg 65%
    23:00 +5°C° 0 mm 3 mps 758 mmHg 62%
    Show more